Terminal Aerodrome Forecast
Issued by NWS

Home | Current Version | Previous Version | Text Only | Print | Product List | Glossary Off
Versions: 1 2 3 4 5 6 7 8 9 10 11 12 13 14

000
FTUS43 KGRB 220800 AAA
TAFCWA
TAF AMD
KCWA 220814Z 2208/2306 18008KT P6SM SCT020 SCT035 WS010/21035KT
      TEMPO 2208/2212 -SHRA BKN025 BKN035
     FM221400 21013G22KT P6SM SCT020 SCT035
     FM221800 28014G28KT P6SM SCT035 BKN060
     FM222200 34012G20KT P6SM SCT035
     FM230200 35006KT P6SM SKC
      AMD LTD TO CLD VIS AND WIND TIL 221100=

USA.gov is the U.S. government's official web portal to all federal, state and local government web resources and services.